sat.trackr.live / text

‹ back to catalog

SES-6

NORAD 39172 · 2013-026A

PAYLOAD ACTIVE UNKNOWN

§ Identity

Operator
Country
SES
Launch date
2013-06-03
Launch site
TYMSC
Launch vehicle
Mass (kg)
RCS (m²)
79.62

Purposes: comms

External: N2YO · Heavens-Above · Gunter

§ Orbital elements

Epoch: 2026-05-25T05:28:21.056736Z

Period
1,436.10 min
Inclination
0.0270°
Eccentricity
0.0002640
Mean motion
1.00271521 rev/d
Perigee alt
35,775.5 km
Apogee alt
35,797.8 km
Semi-major
42,164.8 km
B*
0.0000e+0
RAAN
306.4029°
Arg perigee
122.1715°
Mean anomaly
215.8315°
Rev number
4,749

§ Raw data

SES-61 39172U 13026A   26145.22802149 -.00000263  00000+0  00000+0 0  99902 39172   0.0270 306.4029 0002640 122.1715 215.8315  1.00271521 47496

JSON: /api/v1/satellites/39172 · /tle

For live sub-satellite position, see the globe view (requires WebGL).

§ Visibility from observer

Set your observer location to see the next 7 days of passes ≥ 10°. The values pass through the URL so the page stays shareable.

No JS? Fill the form by hand. The geolocation button needs JavaScript.